contact:dominique.lefevre@mio.osupytheas.fr, maurice.libes@osupytheas.fr, didier.mallarino@osupytheas.fr
Project:EMSO http://www.emso-fr.org/EMSO-France
Depth: 2436.0 m
Title:EMSO Ligure Ouest : Data MII capteur CSTAR
DateTime,Latitude,Longitude,Instrument_Serial,Reference_Counts,Signal_Counts,Corrected_Signal_raw_counts,Calculated_Beam_c_inverse_meters,Internal_thermistor_counts
DateTime,Latitude,Longitude,Instrument_Serial,Reference_Counts,Signal_Counts,Corrected_Signal_raw_counts,Calculated_Beam_c_inverse_meters,Internal_thermistor_counts
2022-09-21T00:00:55,42.805,6.029,CST-1368DR,4575,5060,11772,01.130,551
2022-09-21T00:03:56,42.805,6.029,CST-1368DR,4575,5060,11772,01.130,551
2022-09-21T00:06:58,42.805,6.029,CST-1368DR,4575,5058,11769,01.131,551
2022-09-21T00:09:59,42.805,6.029,CST-1368DR,4575,5059,11771,01.131,551
2022-09-21T00:13:01,42.805,6.029,CST-1368DR,4575,5056,11764,01.133,551
2022-09-21T00:16:03,42.805,6.029,CST-1368DR,4575,5058,11767,01.132,551
2022-09-21T00:19:04,42.805,6.029,CST-1368DR,4575,5057,11767,01.132,551
2022-09-21T00:22:06,42.805,6.029,CST-1368DR,4575,5057,11766,01.132,551
2022-09-21T00:25:07,42.805,6.029,CST-1368DR,4575,5057,11766,01.132,551
2022-09-21T00:28:09,42.805,6.029,CST-1368DR,4575,5055,11760,01.134,551
2022-09-21T00:31:11,42.805,6.029,CST-1368DR,4575,5055,11761,01.134,551
2022-09-21T00:34:12,42.805,6.029,CST-1368DR,4575,5056,11763,01.133,551
2022-09-21T00:37:14,42.805,6.029,CST-1368DR,4575,5057,11766,01.132,551
2022-09-21T00:40:15,42.805,6.029,CST-1368DR,4575,5056,11764,01.133,551
2022-09-21T00:43:17,42.805,6.029,CST-1368DR,4575,5057,11765,01.133,551
2022-09-21T00:46:18,42.805,6.029,CST-1368DR,4575,5056,11764,01.133,551
2022-09-21T00:49:20,42.805,6.029,CST-1368DR,4575,5056,11763,01.133,551
2022-09-21T00:52:22,42.805,6.029,CST-1368DR,4575,5057,11766,01.132,551
2022-09-21T00:55:23,42.805,6.029,CST-1368DR,4575,5056,11764,01.133,551
2022-09-21T00:58:25,42.805,6.029,CST-1368DR,4575,5055,11762,01.134,551
2022-09-21T01:01:26,42.805,6.029,CST-1368DR,4575,5056,11764,01.133,551
2022-09-21T01:04:28,42.805,6.029,CST-1368DR,4575,5057,11766,01.132,551
2022-09-21T01:07:30,42.805,6.029,CST-1368DR,4575,5057,11766,01.132,551
2022-09-21T01:10:31,42.805,6.029,CST-1368DR,4575,5057,11766,01.132,551
2022-09-21T01:13:33,42.805,6.029,CST-1368DR,4575,5057,11766,01.132,551
2022-09-21T01:16:34,42.805,6.029,CST-1368DR,4575,5056,11764,01.133,551
2022-09-21T01:19:36,42.805,6.029,CST-1368DR,4575,5057,11766,01.132,551
2022-09-21T01:22:37,42.805,6.029,CST-1368DR,4575,5056,11764,01.133,551
2022-09-21T01:25:39,42.805,6.029,CST-1368DR,4575,5055,11761,01.134,551
2022-09-21T01:28:41,42.805,6.029,CST-1368DR,4575,5056,11763,01.133,551
2022-09-21T01:31:42,42.805,6.029,CST-1368DR,4575,5056,11763,01.133,551
2022-09-21T01:34:44,42.805,6.029,CST-1368DR,4575,5057,11765,01.133,551
2022-09-21T01:37:45,42.805,6.029,CST-1368DR,4575,5056,11764,01.133,551
2022-09-21T01:40:47,42.805,6.029,CST-1368DR,4575,5055,11761,01.134,551
2022-09-21T01:43:48,42.805,6.029,CST-1368DR,4575,5055,11761,01.134,551
2022-09-21T01:46:50,42.805,6.029,CST-1368DR,4575,5055,11762,01.134,551
2022-09-21T01:49:52,42.805,6.029,CST-1368DR,4575,5056,11763,01.133,551
2022-09-21T01:52:53,42.805,6.029,CST-1368DR,4575,5056,11763,01.133,551
2022-09-21T01:55:55,42.805,6.029,CST-1368DR,4575,5055,11761,01.134,551
2022-09-21T01:58:56,42.805,6.029,CST-1368DR,4575,5057,11765,01.133,551
2022-09-21T02:01:58,42.805,6.029,CST-1368DR,4575,5057,11766,01.132,551
2022-09-21T02:04:59,42.805,6.029,CST-1368DR,4575,5055,11762,01.134,551
2022-09-21T02:08:01,42.805,6.029,CST-1368DR,4575,5061,11775,01.129,551
2022-09-21T02:11:03,42.805,6.029,CST-1368DR,4575,5054,11759,01.135,551
2022-09-21T02:14:04,42.805,6.029,CST-1368DR,4575,5055,11760,01.134,551
2022-09-21T02:17:06,42.805,6.029,CST-1368DR,4575,5054,11758,01.135,551
2022-09-21T02:20:07,42.805,6.029,CST-1368DR,4575,5056,11763,01.133,551
2022-09-21T02:23:09,42.805,6.029,CST-1368DR,4575,5055,11761,01.134,551
2022-09-21T02:26:11,42.805,6.029,CST-1368DR,4575,5054,11760,01.134,551
2022-09-21T02:29:12,42.805,6.029,CST-1368DR,4575,5054,11759,01.135,551
2022-09-21T02:32:14,42.805,6.029,CST-1368DR,4575,5053,11757,01.135,551
2022-09-21T02:35:15,42.805,6.029,CST-1368DR,4575,5055,11760,01.134,551
2022-09-21T02:38:17,42.805,6.029,CST-1368DR,4575,5054,11759,01.135,551
2022-09-21T02:41:18,42.805,6.029,CST-1368DR,4575,5055,11760,01.134,551
2022-09-21T02:44:20,42.805,6.029,CST-1368DR,4575,5054,11760,01.134,551
2022-09-21T02:47:22,42.805,6.029,CST-1368DR,4575,5056,11763,01.133,551
2022-09-21T02:50:23,42.805,6.029,CST-1368DR,4575,5055,11760,01.134,551
2022-09-21T02:53:25,42.805,6.029,CST-1368DR,4575,5050,11750,01.138,551
2022-09-21T02:56:26,42.805,6.029,CST-1368DR,4575,5050,11749,01.138,551
2022-09-21T02:59:28,42.805,6.029,CST-1368DR,4575,5050,11750,01.138,551
2022-09-21T03:02:29,42.805,6.029,CST-1368DR,4575,5050,11750,01.138,551
2022-09-21T03:05:31,42.805,6.029,CST-1368DR,4575,5050,11749,01.138,551
2022-09-21T03:08:33,42.805,6.029,CST-1368DR,4575,5052,11755,01.136,551
2022-09-21T03:11:34,42.805,6.029,CST-1368DR,4575,5050,11750,01.138,551
2022-09-21T03:14:36,42.805,6.029,CST-1368DR,4575,5052,11755,01.136,551
2022-09-21T03:17:37,42.805,6.029,CST-1368DR,4575,5049,11748,01.138,551
2022-09-21T03:20:39,42.805,6.029,CST-1368DR,4575,5050,11750,01.138,551
2022-09-21T03:23:41,42.805,6.029,CST-1368DR,4575,5049,11746,01.139,551
2022-09-21T03:26:42,42.805,6.029,CST-1368DR,4575,5049,11748,01.138,551
2022-09-21T03:29:44,42.805,6.029,CST-1368DR,4575,5049,11748,01.138,551
2022-09-21T03:32:45,42.805,6.029,CST-1368DR,4575,5049,11748,01.138,551
2022-09-21T03:35:47,42.805,6.029,CST-1368DR,4575,5055,11761,01.134,551
2022-09-21T03:38:48,42.805,6.029,CST-1368DR,4575,5055,11760,01.134,551
2022-09-21T03:41:50,42.805,6.029,CST-1368DR,4575,5053,11757,01.135,551
2022-09-21T03:44:52,42.805,6.029,CST-1368DR,4575,5054,11759,01.135,551
2022-09-21T03:47:53,42.805,6.029,CST-1368DR,4575,5056,11763,01.133,551
2022-09-21T03:50:55,42.805,6.029,CST-1368DR,4575,5054,11759,01.135,551
2022-09-21T03:53:56,42.805,6.029,CST-1368DR,4575,5054,11758,01.135,551
2022-09-21T03:56:58,42.805,6.029,CST-1368DR,4575,5052,11755,01.136,551
2022-09-21T04:00:00,42.805,6.029,CST-1368DR,4575,5054,11760,01.134,551
2022-09-21T04:03:01,42.805,6.029,CST-1368DR,4575,5054,11758,01.135,551
2022-09-21T04:06:03,42.805,6.029,CST-1368DR,4575,5057,11767,01.132,551
2022-09-21T04:09:04,42.805,6.029,CST-1368DR,4575,5060,11773,01.130,551
2022-09-21T04:12:06,42.805,6.029,CST-1368DR,4575,5066,11786,01.126,551
2022-09-21T04:15:07,42.805,6.029,CST-1368DR,4575,5060,11772,01.130,551
2022-09-21T04:18:09,42.805,6.029,CST-1368DR,4575,5060,11773,01.130,551
2022-09-21T04:21:11,42.805,6.029,CST-1368DR,4575,5064,11783,01.127,551
2022-09-21T04:24:12,42.805,6.029,CST-1368DR,4575,5062,11778,01.128,551
2022-09-21T04:27:14,42.805,6.029,CST-1368DR,4575,5068,11791,01.124,551
2022-09-21T04:30:15,42.805,6.029,CST-1368DR,4575,5069,11793,01.123,551
2022-09-21T04:33:17,42.805,6.029,CST-1368DR,4575,5068,11792,01.123,551
2022-09-21T04:36:18,42.805,6.029,CST-1368DR,4575,5072,11802,01.120,551
2022-09-21T04:39:20,42.805,6.029,CST-1368DR,4575,5067,11789,01.125,551
2022-09-21T04:42:22,42.805,6.029,CST-1368DR,4575,5071,11798,01.121,551
2022-09-21T04:45:23,42.805,6.029,CST-1368DR,4575,5074,11806,01.119,551
2022-09-21T04:48:25,42.805,6.029,CST-1368DR,4575,5073,11802,01.120,551
2022-09-21T04:51:26,42.805,6.029,CST-1368DR,4575,5071,11798,01.121,551
2022-09-21T04:54:28,42.805,6.029,CST-1368DR,4575,5069,11795,01.122,551
2022-09-21T04:57:30,42.805,6.029,CST-1368DR,4575,5071,11798,01.121,551
2022-09-21T05:00:31,42.805,6.029,CST-1368DR,4575,5073,11803,01.120,551
2022-09-21T05:03:33,42.805,6.029,CST-1368DR,4575,5078,11816,01.115,551
2022-09-21T05:06:34,42.805,6.029,CST-1368DR,4575,5071,11798,01.121,551
2022-09-21T05:09:36,42.805,6.029,CST-1368DR,4575,5070,11795,01.122,551
2022-09-21T05:12:37,42.805,6.029,CST-1368DR,4575,5071,11799,01.121,551
2022-09-21T05:15:39,42.805,6.029,CST-1368DR,4575,5069,11795,01.122,551
2022-09-21T05:18:41,42.805,6.029,CST-1368DR,4575,5070,11796,01.122,551
2022-09-21T05:21:42,42.805,6.029,CST-1368DR,4575,5070,11796,01.122,551
2022-09-21T05:24:44,42.805,6.029,CST-1368DR,4575,5072,11800,01.121,551
2022-09-21T05:27:45,42.805,6.029,CST-1368DR,4575,5072,11802,01.120,551
2022-09-21T05:30:47,42.805,6.029,CST-1368DR,4575,5069,11794,01.123,551
2022-09-21T05:33:48,42.805,6.029,CST-1368DR,4575,5061,11776,01.129,551
2022-09-21T05:36:50,42.805,6.029,CST-1368DR,4575,5070,11796,01.122,551
2022-09-21T05:39:52,42.805,6.029,CST-1368DR,4575,5076,11810,01.117,551
2022-09-21T05:42:53,42.805,6.029,CST-1368DR,4575,5068,11791,01.124,551
2022-09-21T05:45:55,42.805,6.029,CST-1368DR,4575,5066,11786,01.126,551
2022-09-21T05:48:56,42.805,6.029,CST-1368DR,4575,5066,11786,01.126,551
2022-09-21T05:51:58,42.805,6.029,CST-1368DR,4575,5064,11783,01.127,551
2022-09-21T05:55:00,42.805,6.029,CST-1368DR,4575,5065,11784,01.126,551
2022-09-21T05:58:01,42.805,6.029,CST-1368DR,4575,5063,11780,01.128,551
2022-09-21T06:01:03,42.805,6.029,CST-1368DR,4575,5063,11779,01.128,551
2022-09-21T06:04:04,42.805,6.029,CST-1368DR,4575,5063,11780,01.128,551
2022-09-21T06:07:06,42.805,6.029,CST-1368DR,4575,5058,11769,01.131,551
2022-09-21T06:10:07,42.805,6.029,CST-1368DR,4575,5065,11785,01.126,551
2022-09-21T06:13:09,42.805,6.029,CST-1368DR,4575,5066,11786,01.126,551
2022-09-21T06:16:11,42.805,6.029,CST-1368DR,4575,5065,11784,01.126,551
2022-09-21T06:19:12,42.805,6.029,CST-1368DR,4575,5066,11786,01.126,551
2022-09-21T06:22:14,42.805,6.029,CST-1368DR,4575,5066,11786,01.126,551
2022-09-21T06:25:15,42.805,6.029,CST-1368DR,4575,5064,11783,01.127,551
2022-09-21T06:28:17,42.805,6.029,CST-1368DR,4575,5066,11787,01.125,551
2022-09-21T06:31:18,42.805,6.029,CST-1368DR,4575,5065,11785,01.126,551
2022-09-21T06:34:20,42.805,6.029,CST-1368DR,4575,5066,11788,01.125,551
2022-09-21T06:37:22,42.805,6.029,CST-1368DR,4575,5066,11786,01.126,551
2022-09-21T06:40:23,42.805,6.029,CST-1368DR,4575,5068,11791,01.124,551
2022-09-21T06:43:25,42.805,6.029,CST-1368DR,4575,5066,11788,01.125,551
2022-09-21T06:46:26,42.805,6.029,CST-1368DR,4575,5067,11788,01.125,551
2022-09-21T06:49:28,42.805,6.029,CST-1368DR,4575,5066,11786,01.126,551
2022-09-21T06:52:30,42.805,6.029,CST-1368DR,4575,5065,11785,01.126,551
2022-09-21T06:55:31,42.805,6.029,CST-1368DR,4575,5064,11783,01.127,551
2022-09-21T06:58:33,42.805,6.029,CST-1368DR,4575,5067,11788,01.125,551
2022-09-21T07:01:34,42.805,6.029,CST-1368DR,4575,5066,11787,01.125,551
2022-09-21T07:04:36,42.805,6.029,CST-1368DR,4575,5067,11788,01.125,551
2022-09-21T07:07:37,42.805,6.029,CST-1368DR,4575,5066,11788,01.125,551
2022-09-21T07:10:39,42.805,6.029,CST-1368DR,4575,5067,11789,01.125,551
2022-09-21T07:13:41,42.805,6.029,CST-1368DR,4575,5067,11789,01.125,551
2022-09-21T07:16:42,42.805,6.029,CST-1368DR,4575,5067,11788,01.125,551
2022-09-21T07:19:44,42.805,6.029,CST-1368DR,4575,5067,11788,01.125,551
2022-09-21T07:22:45,42.805,6.029,CST-1368DR,4575,5067,11789,01.125,551
2022-09-21T07:25:47,42.805,6.029,CST-1368DR,4575,5068,11792,01.123,551
2022-09-21T07:28:48,42.805,6.029,CST-1368DR,4575,5067,11788,01.125,551
2022-09-21T07:31:50,42.805,6.029,CST-1368DR,4575,5068,11791,01.124,551
2022-09-21T07:34:52,42.805,6.029,CST-1368DR,4575,5064,11781,01.127,551
2022-09-21T07:37:53,42.805,6.029,CST-1368DR,4575,5070,11797,01.122,551
2022-09-21T07:40:55,42.805,6.029,CST-1368DR,4575,5063,11780,01.128,551
2022-09-21T07:43:56,42.805,6.029,CST-1368DR,4575,5068,11792,01.123,551
2022-09-21T07:46:58,42.805,6.029,CST-1368DR,4575,5067,11789,01.125,551
2022-09-21T07:50:00,42.805,6.029,CST-1368DR,4575,5067,11788,01.125,551
2022-09-21T07:53:01,42.805,6.029,CST-1368DR,4575,5068,11792,01.123,551
2022-09-21T07:56:03,42.805,6.029,CST-1368DR,4575,5067,11788,01.125,551
2022-09-21T07:59:04,42.805,6.029,CST-1368DR,4575,5066,11786,01.126,551
2022-09-21T08:02:06,42.805,6.029,CST-1368DR,4575,5068,11792,01.123,551
2022-09-21T08:05:07,42.805,6.029,CST-1368DR,4575,5067,11788,01.125,551
2022-09-21T08:08:09,42.805,6.029,CST-1368DR,4575,5066,11786,01.126,551
2022-09-21T08:11:11,42.805,6.029,CST-1368DR,4575,5061,11775,01.129,551
2022-09-21T08:14:12,42.805,6.029,CST-1368DR,4575,5067,11789,01.125,551
2022-09-21T08:17:14,42.805,6.029,CST-1368DR,4575,5068,11791,01.124,551
2022-09-21T08:20:15,42.805,6.029,CST-1368DR,4575,5058,11767,01.132,551
2022-09-21T08:23:17,42.805,6.029,CST-1368DR,4575,5067,11788,01.125,551
2022-09-21T08:26:19,42.805,6.029,CST-1368DR,4575,5066,11786,01.126,551
2022-09-21T08:29:20,42.805,6.029,CST-1368DR,4575,5083,11825,01.112,551
2022-09-21T08:32:22,42.805,6.029,CST-1368DR,4575,5071,11799,01.121,551
2022-09-21T08:35:23,42.805,6.029,CST-1368DR,4575,5065,11784,01.126,551
2022-09-21T08:38:25,42.805,6.029,CST-1368DR,4575,5066,11787,01.125,551
2022-09-21T08:41:26,42.805,6.029,CST-1368DR,4575,5066,11787,01.125,551
2022-09-21T08:44:28,42.805,6.029,CST-1368DR,4575,5065,11784,01.126,551
2022-09-21T08:47:30,42.805,6.029,CST-1368DR,4575,5058,11768,01.132,551
2022-09-21T08:50:31,42.805,6.029,CST-1368DR,4575,5060,11773,01.130,551
2022-09-21T08:53:33,42.805,6.029,CST-1368DR,4575,5062,11778,01.128,551
2022-09-21T08:56:34,42.805,6.029,CST-1368DR,4575,5059,11770,01.131,551
2022-09-21T08:59:36,42.805,6.029,CST-1368DR,4575,5058,11768,01.132,551
2022-09-21T09:02:37,42.805,6.029,CST-1368DR,4575,5058,11768,01.132,551
2022-09-21T09:05:39,42.805,6.029,CST-1368DR,4575,5060,11774,01.130,551
2022-09-21T09:08:41,42.805,6.029,CST-1368DR,4575,5059,11771,01.131,551
2022-09-21T09:11:42,42.805,6.029,CST-1368DR,4575,5059,11771,01.131,551
2022-09-21T09:14:44,42.805,6.029,CST-1368DR,4575,5057,11767,01.132,551
2022-09-21T09:17:45,42.805,6.029,CST-1368DR,4575,5058,11767,01.132,551
2022-09-21T09:20:47,42.805,6.029,CST-1368DR,4575,5059,11771,01.131,551
2022-09-21T09:23:49,42.805,6.029,CST-1368DR,4575,5059,11771,01.131,551
2022-09-21T09:26:50,42.805,6.029,CST-1368DR,4575,5060,11773,01.130,551
2022-09-21T09:29:52,42.805,6.029,CST-1368DR,4575,5061,11775,01.129,551
2022-09-21T09:32:53,42.805,6.029,CST-1368DR,4575,5060,11773,01.130,551
2022-09-21T09:35:55,42.805,6.029,CST-1368DR,4575,5060,11774,01.130,551
2022-09-21T09:38:56,42.805,6.029,CST-1368DR,4575,5059,11771,01.131,551
2022-09-21T09:41:58,42.805,6.029,CST-1368DR,4575,5060,11773,01.130,551
2022-09-21T09:45:00,42.805,6.029,CST-1368DR,4575,5060,11773,01.130,551
2022-09-21T09:48:01,42.805,6.029,CST-1368DR,4575,5058,11769,01.131,551
2022-09-21T09:51:03,42.805,6.029,CST-1368DR,4575,5057,11765,01.133,551
2022-09-21T09:54:04,42.805,6.029,CST-1368DR,4575,5059,11770,01.131,551
2022-09-21T09:57:06,42.805,6.029,CST-1368DR,4575,5060,11773,01.130,551
2022-09-21T10:00:07,42.805,6.029,CST-1368DR,4575,5058,11768,01.132,551
2022-09-21T10:03:09,42.805,6.029,CST-1368DR,4575,5058,11768,01.132,551
2022-09-21T10:06:11,42.805,6.029,CST-1368DR,4575,5059,11771,01.131,551
2022-09-21T10:09:12,42.805,6.029,CST-1368DR,4575,5060,11773,01.130,551
2022-09-21T10:12:14,42.805,6.029,CST-1368DR,4575,5062,11778,01.128,551
2022-09-21T10:15:15,42.805,6.029,CST-1368DR,4575,5058,11767,01.132,551
2022-09-21T10:18:17,42.805,6.029,CST-1368DR,4575,5060,11774,01.130,551
2022-09-21T10:21:19,42.805,6.029,CST-1368DR,4575,5061,11775,01.129,551
2022-09-21T10:24:20,42.805,6.029,CST-1368DR,4575,5061,11775,01.129,551
2022-09-21T10:27:22,42.805,6.029,CST-1368DR,4575,5062,11778,01.128,551
2022-09-21T10:30:23,42.805,6.029,CST-1368DR,4575,5063,11781,01.127,551
2022-09-21T10:33:25,42.805,6.029,CST-1368DR,4575,5058,11768,01.132,551
2022-09-21T10:36:26,42.805,6.029,CST-1368DR,4575,5061,11774,01.130,551
2022-09-21T10:39:28,42.805,6.029,CST-1368DR,4575,5061,11775,01.129,551
2022-09-21T10:42:30,42.805,6.029,CST-1368DR,4575,5062,11777,01.129,551
2022-09-21T10:45:31,42.805,6.029,CST-1368DR,4575,5059,11771,01.131,551
2022-09-21T10:48:33,42.805,6.029,CST-1368DR,4575,5062,11777,01.129,551
2022-09-21T10:51:34,42.805,6.029,CST-1368DR,4575,5061,11776,01.129,551
2022-09-21T10:54:36,42.805,6.029,CST-1368DR,4575,5061,11775,01.129,551
2022-09-21T10:57:38,42.805,6.029,CST-1368DR,4575,5061,11775,01.129,551
2022-09-21T11:00:39,42.805,6.029,CST-1368DR,4575,5062,11778,01.128,551
2022-09-21T11:03:41,42.805,6.029,CST-1368DR,4575,5061,11775,01.129,551
2022-09-21T11:06:42,42.805,6.029,CST-1368DR,4575,5062,11777,01.129,551
2022-09-21T11:09:44,42.805,6.029,CST-1368DR,4575,5062,11778,01.128,551
2022-09-21T11:12:45,42.805,6.029,CST-1368DR,4575,5062,11778,01.128,551
2022-09-21T11:15:47,42.805,6.029,CST-1368DR,4575,5064,11782,01.127,551
2022-09-21T11:18:49,42.805,6.029,CST-1368DR,4575,5059,11770,01.131,551
2022-09-21T11:21:50,42.805,6.029,CST-1368DR,4575,5063,11780,01.128,551
2022-09-21T11:24:52,42.805,6.029,CST-1368DR,4575,5062,11777,01.129,551
2022-09-21T11:27:53,42.805,6.029,CST-1368DR,4575,5061,11774,01.130,551
2022-09-21T11:30:55,42.805,6.029,CST-1368DR,4575,5060,11773,01.130,551
2022-09-21T11:33:56,42.805,6.029,CST-1368DR,4575,5062,11777,01.129,551
2022-09-21T11:36:58,42.805,6.029,CST-1368DR,4575,5058,11769,01.131,551
2022-09-21T11:40:00,42.805,6.029,CST-1368DR,4575,5058,11768,01.132,551
2022-09-21T11:43:01,42.805,6.029,CST-1368DR,4574,5062,11780,01.128,551
2022-09-21T11:46:03,42.805,6.029,CST-1368DR,4575,5061,11775,01.129,551
2022-09-21T11:49:04,42.805,6.029,CST-1368DR,4574,5064,11785,01.126,551
2022-09-21T11:52:06,42.805,6.029,CST-1368DR,4575,5063,11780,01.128,551
2022-09-21T11:55:08,42.805,6.029,CST-1368DR,4574,5061,11777,01.129,551
2022-09-21T11:58:09,42.805,6.029,CST-1368DR,4575,5063,11779,01.128,551
2022-09-21T12:01:11,42.805,6.029,CST-1368DR,4575,5057,11767,01.132,551
2022-09-21T12:04:12,42.805,6.029,CST-1368DR,4575,5060,11772,01.130,551
2022-09-21T12:07:14,42.805,6.029,CST-1368DR,4575,5060,11773,01.130,551
2022-09-21T12:10:15,42.805,6.029,CST-1368DR,4575,5059,11771,01.131,551
2022-09-21T12:13:17,42.805,6.029,CST-1368DR,4574,5061,11778,01.128,551
2022-09-21T12:16:19,42.805,6.029,CST-1368DR,4574,5063,11783,01.127,551
2022-09-21T12:19:20,42.805,6.029,CST-1368DR,4574,5061,11777,01.129,551
2022-09-21T12:22:22,42.805,6.029,CST-1368DR,4574,5061,11778,01.128,551
2022-09-21T12:25:23,42.805,6.029,CST-1368DR,4575,5062,11777,01.129,551
2022-09-21T12:28:25,42.805,6.029,CST-1368DR,4574,5061,11778,01.128,551
2022-09-21T12:31:26,42.805,6.029,CST-1368DR,4574,5063,11782,01.127,551
2022-09-21T12:34:28,42.805,6.029,CST-1368DR,4574,5060,11775,01.129,551
2022-09-21T12:37:30,42.805,6.029,CST-1368DR,4574,5061,11778,01.128,551
2022-09-21T12:40:31,42.805,6.029,CST-1368DR,4574,5060,11776,01.129,551
2022-09-21T12:43:33,42.805,6.029,CST-1368DR,4574,5061,11777,01.129,551
2022-09-21T12:46:34,42.805,6.029,CST-1368DR,4574,5061,11778,01.128,551
2022-09-21T12:49:36,42.805,6.029,CST-1368DR,4574,5063,11783,01.127,551
2022-09-21T12:52:38,42.805,6.029,CST-1368DR,4574,5061,11778,01.128,551
2022-09-21T12:55:39,42.805,6.029,CST-1368DR,4574,5062,11781,01.127,551
2022-09-21T12:58:41,42.805,6.029,CST-1368DR,4574,5067,11792,01.123,551
2022-09-21T13:01:42,42.805,6.029,CST-1368DR,4574,5065,11786,01.126,551
2022-09-21T13:04:44,42.805,6.029,CST-1368DR,4574,5063,11783,01.127,551
2022-09-21T13:07:45,42.805,6.029,CST-1368DR,4574,5064,11785,01.126,551
2022-09-21T13:10:47,42.805,6.029,CST-1368DR,4574,5069,11797,01.122,551
2022-09-21T13:13:49,42.805,6.029,CST-1368DR,4574,5070,11798,01.121,551
2022-09-21T13:16:50,42.805,6.029,CST-1368DR,4574,5074,11807,01.118,551
2022-09-21T13:19:52,42.805,6.029,CST-1368DR,4574,5068,11795,01.122,551
2022-09-21T13:22:53,42.805,6.029,CST-1368DR,4574,5071,11801,01.120,551
2022-09-21T13:25:55,42.805,6.029,CST-1368DR,4574,5071,11801,01.120,551
2022-09-21T13:28:56,42.805,6.029,CST-1368DR,4574,5061,11778,01.128,551
2022-09-21T13:31:58,42.805,6.029,CST-1368DR,4574,5070,11799,01.121,551
2022-09-21T13:35:00,42.805,6.029,CST-1368DR,4574,5069,11797,01.122,551
2022-09-21T13:38:01,42.805,6.029,CST-1368DR,4574,5067,11791,01.124,551
2022-09-21T13:41:03,42.805,6.029,CST-1368DR,4574,5067,11792,01.123,551
2022-09-21T13:44:04,42.805,6.029,CST-1368DR,4574,5071,11801,01.120,551
2022-09-21T13:47:06,42.805,6.029,CST-1368DR,4574,5070,11798,01.121,551
2022-09-21T13:50:08,42.805,6.029,CST-1368DR,4574,5071,11802,01.120,551
2022-09-21T13:53:09,42.805,6.029,CST-1368DR,4574,5068,11793,01.123,551
2022-09-21T13:56:11,42.805,6.029,CST-1368DR,4574,5069,11796,01.122,551
2022-09-21T13:59:12,42.805,6.029,CST-1368DR,4574,5073,11805,01.119,551
2022-09-21T14:02:14,42.805,6.029,CST-1368DR,4574,5062,11779,01.128,551
2022-09-21T14:05:15,42.805,6.029,CST-1368DR,4574,5060,11776,01.129,551
2022-09-21T14:08:17,42.805,6.029,CST-1368DR,4574,5070,11798,01.121,551
2022-09-21T14:11:19,42.805,6.029,CST-1368DR,4574,5067,11792,01.123,551
2022-09-21T14:14:20,42.805,6.029,CST-1368DR,4574,5068,11794,01.123,551
2022-09-21T14:17:22,42.805,6.029,CST-1368DR,4574,5067,11792,01.123,551
2022-09-21T14:20:23,42.805,6.029,CST-1368DR,4574,5066,11790,01.124,551
2022-09-21T14:23:25,42.805,6.029,CST-1368DR,4574,5069,11797,01.122,551
2022-09-21T14:26:26,42.805,6.029,CST-1368DR,4574,5066,11789,01.125,551
2022-09-21T14:29:28,42.805,6.029,CST-1368DR,4574,5065,11787,01.125,551
2022-09-21T14:32:30,42.805,6.029,CST-1368DR,4574,5067,11792,01.123,551
2022-09-21T14:35:31,42.805,6.029,CST-1368DR,4574,5067,11792,01.123,551
2022-09-21T14:38:33,42.805,6.029,CST-1368DR,4574,5068,11794,01.123,551
2022-09-21T14:41:34,42.805,6.029,CST-1368DR,4574,5066,11790,01.124,551
2022-09-21T14:44:36,42.805,6.029,CST-1368DR,4574,5066,11790,01.124,551
2022-09-21T14:47:38,42.805,6.029,CST-1368DR,4574,5067,11791,01.124,551
2022-09-21T14:50:39,42.805,6.029,CST-1368DR,4574,5067,11791,01.124,551
2022-09-21T14:53:41,42.805,6.029,CST-1368DR,4574,5065,11787,01.125,551
2022-09-21T14:56:42,42.805,6.029,CST-1368DR,4574,5067,11792,01.123,551
2022-09-21T14:59:44,42.805,6.029,CST-1368DR,4574,5067,11791,01.124,551
2022-09-21T15:02:45,42.805,6.029,CST-1368DR,4574,5065,11787,01.125,551
2022-09-21T15:05:47,42.805,6.029,CST-1368DR,4574,5067,11791,01.124,551
2022-09-21T15:08:49,42.805,6.029,CST-1368DR,4574,5066,11789,01.125,551
2022-09-21T15:11:50,42.805,6.029,CST-1368DR,4574,5074,11807,01.118,551
2022-09-21T15:14:52,42.805,6.029,CST-1368DR,4574,5062,11780,01.128,551
2022-09-21T15:17:53,42.805,6.029,CST-1368DR,4574,5066,11788,01.125,551
2022-09-21T15:20:55,42.805,6.029,CST-1368DR,4574,5066,11788,01.125,551
2022-09-21T15:23:56,42.805,6.029,CST-1368DR,4574,5065,11787,01.125,551
2022-09-21T15:26:58,42.805,6.029,CST-1368DR,4574,5063,11783,01.127,551
2022-09-21T15:30:00,42.805,6.029,CST-1368DR,4574,5063,11781,01.127,551
2022-09-21T15:33:01,42.805,6.029,CST-1368DR,4574,5063,11783,01.127,551
2022-09-21T15:36:03,42.805,6.029,CST-1368DR,4574,5063,11782,01.127,551
2022-09-21T15:39:04,42.805,6.029,CST-1368DR,4574,5062,11781,01.127,551
2022-09-21T15:42:06,42.805,6.029,CST-1368DR,4574,5061,11777,01.129,551
2022-09-21T15:45:08,42.805,6.029,CST-1368DR,4574,5062,11781,01.127,551
2022-09-21T15:48:09,42.805,6.029,CST-1368DR,4574,5063,11782,01.127,551
2022-09-21T15:51:11,42.805,6.029,CST-1368DR,4574,5063,11783,01.127,551
2022-09-21T15:54:12,42.805,6.029,CST-1368DR,4574,5063,11781,01.127,551
2022-09-21T15:57:14,42.805,6.029,CST-1368DR,4574,5063,11783,01.127,551
2022-09-21T16:00:15,42.805,6.029,CST-1368DR,4574,5063,11782,01.127,551
2022-09-21T16:03:17,42.805,6.029,CST-1368DR,4574,5064,11785,01.126,551
2022-09-21T16:06:19,42.805,6.029,CST-1368DR,4574,5062,11779,01.128,551
2022-09-21T16:09:20,42.805,6.029,CST-1368DR,4574,5063,11783,01.127,551
2022-09-21T16:12:22,42.805,6.029,CST-1368DR,4574,5062,11779,01.128,551
2022-09-21T16:15:23,42.805,6.029,CST-1368DR,4574,5064,11784,01.126,551
2022-09-21T16:18:25,42.805,6.029,CST-1368DR,4574,5062,11781,01.127,551
2022-09-21T16:21:26,42.805,6.029,CST-1368DR,4574,5063,11781,01.127,551
2022-09-21T16:24:28,42.805,6.029,CST-1368DR,4574,5061,11778,01.128,551
2022-09-21T16:27:30,42.805,6.029,CST-1368DR,4574,5062,11781,01.127,551
2022-09-21T16:30:31,42.805,6.029,CST-1368DR,4574,5062,11781,01.127,551
2022-09-21T16:33:33,42.805,6.029,CST-1368DR,4574,5063,11781,01.127,551
2022-09-21T16:36:34,42.805,6.029,CST-1368DR,4574,5063,11782,01.127,551